[[{"header":{"parameterUnit":"m.s-1","parameterCategory":1,"la1":30.2991,"la2":30.254,"lo1":-89.0895,"lo2":-89.0444,"dy":0.0017,"dx":0.0017,"nx":28,"ny":28,"refTime":"2024-02-23T03:00:00:Z","depth":0,"parameterNumber":2,"parameterNumberName":"U-component_of_WINDS"},"data":[0,0,0,0,0,0,0,0,0,0,0,0,0,0,0,0,0,0,0,0,0,0,0,0,0,0,0,0,0,0,0,0,0,0,0,0,0,0,0,0,0,0,0,0,0,0,0,0,0,0,0,0,0,0,0,0,0,0,3.9878,3.9879,0,3.998,3.9981,3.9982,3.9962,3.996,3.9958,3.9957,4.0062,4.0066,4.0071,0,0,0,0,0,0,0,0,0,0,0,0,0,3.9669,3.9673,3.9878,3.9879,3.988,3.9979,3.9981,3.9982,3.9962,3.996,3.9958,3.9956,4.0061,4.0066,4.0071,0,0,0,0,0,0,0,0,0,0,0,0,0,3.9764,3.9674,3.9878,3.9882,3.9884,3.9979,3.9981,3.9983,3.9963,3.996,3.9957,3.9955,4.0059,4.0065,4.0072,4.0169,0,0,4.0093,4.0096,0,0,0,0,0,0,0,0,3.9759,3.9772,3.988,3.9882,3.9884,3.9955,3.9946,4.0045,3.9964,3.9933,3.9957,3.9953,4.0029,4.0038,4.0063,4.0174,4.0179,4.0093,4.0098,4.01,4.0102,0,0,0,0,0,0,0,3.9752,3.9768,3.9918,3.9882,3.9884,3.988,3.9891,3.9965,3.9995,3.9935,3.9934,3.9946,4.0029,4.0057,4.0065,4.018,4.0093,4.0099,4.0103,4.0106,4.038,4.0383,0,0,0,0,0,0,3.9744,3.9762,3.9915,3.9921,3.9813,3.9886,3.9898,3.9935,3.9994,4.0001,3.9949,3.9945,4.0046,4.0058,4.0069,4.0189,4.01,4.0107,4.0111,4.0377,4.038,4.0384,0,0,0,0,0,0,3.9739,3.9758,3.9911,3.9841,3.9861,3.9893,3.9935,3.9939,3.9966,4.0004,4.001,3.9971,4.0045,4.006,4.0145,4.0192,4.011,4.0116,4.0373,4.0378,4.0382,4.0428,0,0,0,0,0,0,3.9734,3.9756,3.9793,3.9842,3.9864,3.9985,3.9938,3.9943,3.9978,3.9974,4.0027,4.0033,4.0044,4.0135,4.0152,4.02,4.0121,4.0369,4.0375,4.0381,4.0423,4.0434,4.0444,0,0,0,0,0,3.9726,3.9801,3.9795,3.9813,3.9911,3.9987,4.0,4.0011,3.9981,4.0019,4.0044,4.0031,4.0184,4.0144,4.0163,4.0214,4.0366,4.0373,4.038,4.0418,4.0432,4.0444,0,0,0,0,0,0,3.9756,3.9808,3.9801,3.9894,3.9937,3.9984,4.0031,4.0024,4.0076,4.007,4.0082,4.0094,4.0182,4.0206,4.016,4.0313,4.0271,4.0282,4.0294,4.0307,4.0317,4.031,4.0127,0,0,0,0,0,3.9773,3.983,3.9873,3.9951,3.9973,3.9999,4.0032,4.0037,4.0081,4.0099,4.013,4.0175,4.0233,4.0271,4.0327,4.0426,4.0439,4.0471,4.0481,4.049,4.05,4.0557,4.0572,4.0408,4.0408,4.0407,0,0,3.981,3.9845,3.988,3.9958,3.9991,4.0052,4.0014,4.0078,4.0124,4.0109,4.0193,4.0217,4.0267,4.0361,4.0404,4.0384,4.0548,4.0499,4.0505,4.0511,4.0566,4.0581,4.0595,4.0412,4.0412,4.0411,0,0,3.9907,3.9939,4.0009,4.0044,4.0095,4.0112,4.0129,4.0178,4.0194,4.0278,4.0269,4.0323,4.0423,4.046,4.0492,4.0606,4.0597,4.0624,4.0679,4.0735,4.0748,4.076,4.0803,4.0818,4.0634,4.0634,4.0634,0,3.9946,4.0036,4.0046,4.0112,4.0148,4.0138,4.021,4.0243,4.031,4.0335,4.0312,4.0439,4.0472,4.0575,4.0603,4.0629,4.065,4.0618,4.0745,4.0757,4.0768,4.0809,4.0825,4.0637,4.0637,4.0636,4.0636,0,4.0083,4.0145,4.0196,4.0262,4.0303,4.0371,4.0393,4.0433,4.0435,4.0455,4.0542,4.0582,4.0646,4.0671,4.0673,4.0776,4.0762,4.0742,4.0701,4.0787,4.0826,4.0841,4.0641,4.064,4.0639,4.0639,0,0,4.0201,4.0273,4.0291,4.0322,4.0379,4.0428,4.0498,4.0561,4.0597,4.0644,4.0703,4.0789,4.0772,4.0808,4.0814,4.0863,4.0954,4.0837,4.0838,4.0859,4.1073,4.1089,4.1106,4.0948,4.0951,4.0953,4.1069,0,4.0305,4.0428,4.044,4.0549,4.0609,4.0602,4.0662,4.0705,4.0726,4.078,4.0803,4.0865,4.0836,4.0858,4.0906,4.0933,4.0997,4.0924,4.1005,4.1008,4.0994,4.1126,4.1143,4.125,4.1084,4.1087,4.1089,0,4.0443,4.0495,4.0611,4.0663,4.0688,4.0742,4.0803,4.0854,4.0903,4.0915,4.0957,4.0957,4.1031,4.0986,4.1089,4.1039,4.1073,4.1091,4.1096,4.1105,4.1054,4.1141,4.1284,4.1301,4.1112,4.111,4.1109,0,4.0521,4.062,4.0703,4.0729,4.079,4.0829,4.0856,4.0902,4.094,4.0994,4.1019,4.108,4.1113,4.1161,4.1179,4.1144,4.1281,4.1238,4.1295,4.1295,4.1325,4.1323,4.1478,4.1344,4.1344,4.1344,4.1343,0,4.0637,4.0709,4.0739,4.079,4.0871,4.0884,4.0965,4.099,4.1032,4.1089,4.1086,4.1139,4.1159,4.1216,4.1231,4.1315,4.1329,4.1342,4.1346,4.1344,4.1342,4.1367,4.136,4.1348,4.1347,4.1346,4.1346,0,4.0737,4.076,4.085,4.0901,4.0916,4.0973,4.1018,4.1068,4.1089,4.1161,4.1179,4.1212,4.128,4.1302,4.1384,4.1394,4.1492,4.1488,4.1476,4.1477,4.1534,4.1529,4.1711,4.1736,4.1585,4.1586,4.1587,0,4.081,4.0866,4.0923,4.0961,4.099,4.1051,4.1091,4.1107,4.1149,4.121,4.1253,4.132,4.1375,4.1484,4.1516,4.1579,4.1578,4.1637,4.1587,4.1584,4.1581,4.1578,4.1585,4.1647,4.1649,4.165,4.1651,0,4.0939,4.0948,4.1004,4.1066,4.1114,4.1163,4.121,4.1242,4.1265,4.1312,4.1382,4.1425,4.1509,4.1577,4.1641,4.1671,4.1666,4.1666,4.1683,4.1682,4.1674,4.1681,4.1503,4.1662,4.1661,4.166,4.166,4.1659,4.1029,4.1079,4.1128,4.1192,4.123,4.1275,4.1326,4.1353,4.1411,4.1481,4.1487,4.1563,4.1613,4.17,4.1732,4.1793,4.1776,4.18,4.1806,4.1812,4.1818,4.1663,4.1804,4.1804,4.1804,4.1803,4.1803,0,4.1159,4.1191,4.125,4.1317,4.1368,4.1358,4.1411,4.1455,4.1522,4.1568,4.1623,4.1704,4.177,4.1808,4.1874,4.1915,4.1915,4.1933,4.193,4.1938,4.1828,4.1808,4.1932,4.1932,4.1932,4.1932,4.1932,4.1932,4.1233,4.1318,4.1333,4.1437,4.1468,4.1542,4.1574,4.1616,4.1654,4.1744,4.18,4.1824,4.1868,4.1938,4.1999,4.2008,4.2033,4.2053,4.2061,4.1958,4.1945,4.1932,4.1913,4.2058,4.2058,4.2166,4.2167,4.2168]},{"header":{"parameterUnit":"m.s-1","parameterCategory":1,"la1":30.2991,"la2":30.254,"lo1":-89.0895,"lo2":-89.0444,"dy":0.0017,"dx":0.0017,"nx":28,"ny":28,"refTime":"2024-02-23T03:00:00:Z","depth":0,"parameterNumber":3,"parameterNumberName":"V-component_of_WINDS"},"data":[0,0,0,0,0,0,0,0,0,0,0,0,0,0,0,0,0,0,0,0,0,0,0,0,0,0,0,0,0,0,0,0,0,0,0,0,0,0,0,0,0,0,0,0,0,0,0,0,0,0,0,0,0,0,0,0,0,0,-0.9786,-0.9787,0,-0.9814,-0.9814,-0.9814,-0.9861,-0.9862,-0.9863,-0.9864,-0.9891,-0.9891,-0.9891,0,0,0,0,0,0,0,0,0,0,0,0,0,-0.9774,-0.9774,-0.9786,-0.9787,-0.9787,-0.9814,-0.9814,-0.9814,-0.9861,-0.9862,-0.9863,-0.9864,-0.9891,-0.9891,-0.9891,0,0,0,0,0,0,0,0,0,0,0,0,0,-0.9788,-0.9774,-0.9786,-0.9814,-0.9816,-0.9814,-0.9814,-0.9815,-0.9861,-0.9862,-0.9864,-0.9865,-0.9891,-0.9891,-0.9891,-0.9863,0,0,-0.989,-0.989,0,0,0,0,0,0,0,0,-0.9787,-0.9789,-0.9809,-0.9812,-0.9815,-0.9836,-0.982,-0.9831,-0.9861,-0.9844,-0.9864,-0.9865,-0.9871,-0.9873,-0.9875,-0.9865,-0.9866,-0.989,-0.989,-0.989,-0.989,0,0,0,0,0,0,0,-0.9786,-0.9788,-0.9797,-0.9809,-0.9813,-0.9824,-0.9828,-0.9822,-0.985,-0.9845,-0.9849,-0.9852,-0.9873,-0.9875,-0.9876,-0.9866,-0.989,-0.989,-0.989,-0.989,-0.9836,-0.9835,0,0,0,0,0,0,-0.9782,-0.9787,-0.9796,-0.9798,-0.9804,-0.9824,-0.9827,-0.9827,-0.985,-0.9855,-0.985,-0.9854,-0.9875,-0.9876,-0.9877,-0.9848,-0.989,-0.989,-0.989,-0.9838,-0.9836,-0.9835,0,0,0,0,0,0,-0.9781,-0.9782,-0.9795,-0.9793,-0.9796,-0.9822,-0.9822,-0.9827,-0.9829,-0.9854,-0.9859,-0.9847,-0.9876,-0.9877,-0.9867,-0.9849,-0.989,-0.989,-0.9839,-0.9837,-0.9835,-0.9788,0,0,0,0,0,0,-0.9781,-0.9782,-0.9771,-0.9793,-0.9796,-0.9784,-0.9821,-0.9827,-0.9829,-0.9834,-0.9852,-0.9857,-0.9877,-0.9867,-0.9867,-0.985,-0.989,-0.9841,-0.9838,-0.9836,-0.9791,-0.9785,-0.9779,0,0,0,0,0,-0.978,-0.9756,-0.977,-0.9771,-0.9784,-0.9783,-0.9785,-0.9809,-0.9827,-0.9818,-0.9834,-0.9856,-0.9851,-0.9865,-0.9866,-0.9848,-0.9842,-0.9839,-0.9836,-0.9794,-0.9786,-0.9779,0,0,0,0,0,0,-0.9731,-0.9759,-0.9776,-0.9758,-0.9768,-0.9791,-0.9779,-0.9799,-0.9804,-0.9808,-0.9837,-0.9841,-0.9827,-0.9837,-0.9852,-0.9824,-0.985,-0.9847,-0.9818,-0.9811,-0.9805,-0.9803,-0.9889,0,0,0,0,0,-0.9718,-0.9716,-0.974,-0.9723,-0.9727,-0.9752,-0.9753,-0.9771,-0.9782,-0.9786,-0.9801,-0.9811,-0.9812,-0.9812,-0.9814,-0.9793,-0.9798,-0.9781,-0.9775,-0.977,-0.9767,-0.9758,-0.9751,-0.9825,-0.9825,-0.9825,0,0,-0.9691,-0.9707,-0.9703,-0.9713,-0.9723,-0.972,-0.9755,-0.975,-0.9748,-0.9785,-0.9777,-0.9788,-0.9801,-0.9786,-0.978,-0.9793,-0.9748,-0.9766,-0.9762,-0.9762,-0.9754,-0.9747,-0.9741,-0.9823,-0.9823,-0.9824,0,0,-0.9642,-0.9652,-0.964,-0.9649,-0.9664,-0.9681,-0.9678,-0.9698,-0.9708,-0.97,-0.9728,-0.9726,-0.9727,-0.9735,-0.974,-0.9695,-0.9716,-0.9695,-0.9663,-0.9654,-0.9648,-0.9643,-0.9628,-0.9622,-0.9692,-0.9692,-0.9692,0,-0.9607,-0.9603,-0.963,-0.9624,-0.9628,-0.9662,-0.965,-0.9657,-0.9672,-0.9674,-0.9689,-0.9692,-0.9703,-0.9691,-0.968,-0.9682,-0.968,-0.9693,-0.9647,-0.9642,-0.9638,-0.9624,-0.9618,-0.9689,-0.9689,-0.969,-0.969,0,-0.956,-0.9557,-0.9545,-0.9559,-0.9562,-0.9552,-0.9578,-0.9577,-0.9595,-0.9611,-0.9603,-0.9618,-0.9624,-0.9623,-0.964,-0.9613,-0.9622,-0.9641,-0.9668,-0.9627,-0.9615,-0.961,-0.9685,-0.9686,-0.9687,-0.9688,0,0,-0.9479,-0.9509,-0.9504,-0.9512,-0.9531,-0.953,-0.9522,-0.9529,-0.9529,-0.9538,-0.9532,-0.9533,-0.9552,-0.9557,-0.9576,-0.9568,-0.9533,-0.9589,-0.9589,-0.9578,-0.9506,-0.9491,-0.9484,-0.9547,-0.9546,-0.9545,-0.9505,0,-0.9433,-0.9422,-0.9447,-0.943,-0.9429,-0.9462,-0.9456,-0.9467,-0.9482,-0.9483,-0.9499,-0.95,-0.9524,-0.9528,-0.9521,-0.9538,-0.9518,-0.9541,-0.9543,-0.9543,-0.9539,-0.9478,-0.9462,-0.9423,-0.95,-0.9499,-0.9499,0,-0.9379,-0.9386,-0.9369,-0.9391,-0.9392,-0.9385,-0.9395,-0.9395,-0.9409,-0.942,-0.9427,-0.9449,-0.9444,-0.947,-0.9463,-0.9479,-0.9481,-0.9489,-0.9488,-0.949,-0.9518,-0.9478,-0.9411,-0.9405,-0.9491,-0.9491,-0.9492,0,-0.9322,-0.9328,-0.9319,-0.9324,-0.9349,-0.9345,-0.9355,-0.937,-0.9374,-0.9382,-0.9384,-0.9391,-0.9395,-0.94,-0.9424,-0.9441,-0.9415,-0.9443,-0.9425,-0.9424,-0.9418,-0.9418,-0.9351,-0.9418,-0.9418,-0.9419,-0.9419,0,-0.9269,-0.9258,-0.9294,-0.9289,-0.9277,-0.9306,-0.9294,-0.9308,-0.9322,-0.932,-0.9349,-0.9346,-0.9378,-0.9379,-0.9398,-0.939,-0.9391,-0.9401,-0.9406,-0.9399,-0.9397,-0.9401,-0.9404,-0.9417,-0.9417,-0.9418,-0.9418,0,-0.9204,-0.9228,-0.9221,-0.9246,-0.9252,-0.9243,-0.9264,-0.926,-0.9278,-0.9275,-0.9276,-0.9303,-0.9306,-0.933,-0.9338,-0.9351,-0.9337,-0.9347,-0.9332,-0.9336,-0.9317,-0.9318,-0.9249,-0.9242,-0.9314,-0.9313,-0.9312,0,-0.9169,-0.9161,-0.9186,-0.9187,-0.9196,-0.9197,-0.9201,-0.923,-0.9232,-0.9249,-0.9243,-0.9249,-0.9255,-0.9258,-0.9279,-0.9285,-0.9296,-0.9272,-0.9297,-0.9291,-0.9297,-0.9297,-0.9297,-0.9266,-0.9265,-0.9265,-0.9264,0,-0.9104,-0.9117,-0.9121,-0.913,-0.9134,-0.9142,-0.9152,-0.9151,-0.9183,-0.9185,-0.9189,-0.9194,-0.9203,-0.9208,-0.9219,-0.923,-0.9252,-0.9256,-0.9252,-0.9245,-0.9237,-0.9242,-0.9318,-0.9257,-0.9258,-0.9258,-0.9259,-0.9259,-0.9053,-0.9049,-0.9066,-0.907,-0.9081,-0.909,-0.9088,-0.9106,-0.911,-0.912,-0.9136,-0.9138,-0.9154,-0.9171,-0.918,-0.9182,-0.9195,-0.919,-0.9188,-0.9187,-0.9183,-0.9236,-0.9184,-0.9184,-0.9185,-0.9185,-0.9185,0,-0.8991,-0.9004,-0.9008,-0.9021,-0.9025,-0.9046,-0.9059,-0.9061,-0.9062,-0.9075,-0.9081,-0.9086,-0.9092,-0.9113,-0.9122,-0.9119,-0.913,-0.9121,-0.9121,-0.9124,-0.9171,-0.9173,-0.9112,-0.9112,-0.9112,-0.9112,-0.9112,-0.9112,-0.8959,-0.8952,-0.8967,-0.8967,-0.898,-0.8982,-0.8988,-0.8997,-0.9007,-0.9012,-0.9017,-0.9032,-0.9048,-0.9058,-0.9065,-0.9071,-0.9073,-0.9061,-0.907,-0.9113,-0.912,-0.9127,-0.913,-0.9061,-0.906,-0.9023,-0.9023,-0.9023]}]]